OV1-9

operational
NORAD ID: 2610 Int'l Des: 1966-111 Owner: OAR Country: US
MEOELLIPTICALRETROGRADE

关于 OV1-9

正在加载描述...

实时位置

正在加载3D地球...

即将过境

高度历史

Altitude vs Time

uPlot chart will show altitude changes over time

两行轨道根数

1 2610U 66111A 26061.08223903 .00000707 00000-0 28639-3 0 9991
2 2610 99.1020 276.8656 2272456 181.1312 178.3867 10.39789058221901
Epoch: Mar 2, 2026 • Age: 28 hours

当前状态

高度 3780.7 km
速度 5.80 km/s
星下点 39.82°N, 52.46°E
类型 other

大型星座

Loading constellations...